EW1179 Weather Reports


Display with metric or nautical units.
time (UTC)temp
F
wind
direction
speed
MPH
gust
MPH
rain 1hr
in
rain 24hr
in
rain mn
in
humidity
%
barometer
mb
20260906163012 65 87 0.0 2.0 0.00 0.00 0.00 56 1012.7
20260906161510 64 134 0.0 3.0 0.00 0.00 0.00 59 1012.8
20260906160007 62 212 0.0 0.0 0.00 0.00 0.00 62 1012.8
20260906154559 61 32 0.0 1.0 0.00 0.00 0.00 65 1012.8
20260906153055 58 102 0.0 0.0 0.00 0.00 0.00 71 1012.8
20260906151551 55 236 0.0 0.0 0.00 0.00 0.00 76 1012.9
20260906150058 52 236 0.0 0.0 0.00 0.00 0.00 79 1012.9
20260906144544 51 9 0.0 0.0 0.00 0.00 0.00 80 1012.8
20260906143048 50 9 0.0 0.0 0.00 0.00 0.00 82 1012.6
20260906141535 48 9 0.0 0.0 0.00 0.00 0.00 83 1012.4
20260906140029 48 332 0.0 0.0 0.00 0.00 0.00 83 1012.3
20260906134526 48 332 0.0 0.0 0.00 0.00 0.00 82 1012.3
20260906133026 48 332 0.0 0.0 0.00 0.00 0.00 82 1012.3
20260906131524 48 332 0.0 0.0 0.00 0.00 0.00 81 1012.3
20260906130023 48 332 0.0 0.0 0.00 0.00 0.00 81 1012.3
20260906124520 49 332 0.0 0.0 0.00 0.00 0.00 81 1012.2
20260906123022 49 332 0.0 0.0 0.00 0.00 0.00 81 1012.1
20260906121518 49 332 0.0 0.0 0.00 0.00 0.00 80 1012.2
20260906120017 49 332 0.0 0.0 0.00 0.00 0.00 80 1012.2
20260906114533 50 332 0.0 0.0 0.00 0.00 0.00 80 1012.1
20260906113020 50 332 0.0 0.0 0.00 0.00 0.00 80 1012.2
20260906111514 50 332 0.0 0.0 0.00 0.00 0.00 80 1012.1
20260906110013 50 333 0.0 0.0 0.00 0.00 0.00 79 1012.0
20260906104514 51 254 0.0 0.0 0.00 0.00 0.00 79 1011.9
20260906103008 51 311 0.0 0.0 0.00 0.00 0.00 79 1012.0
20260906101517 51 311 0.0 0.0 0.00 0.00 0.00 78 1011.8
20260906100006 52 311 0.0 0.0 0.00 0.00 0.00 78 1011.8
20260906094504 52 311 0.0 0.0 0.00 0.00 0.00 78 1011.8
20260906093001 52 311 0.0 0.0 0.00 0.00 0.00 77 1011.8
20260906091600 53 311 0.0 0.0 0.00 0.00 0.00 77 1011.9
20260906090100 53 311 0.0 0.0 0.00 0.00 0.00 77 1012.0
20260906084557 54 311 0.0 0.0 0.00 0.00 0.00 76 1012.0
20260906083056 54 311 0.0 0.0 0.00 0.00 0.00 76 1012.0
20260906081554 54 311 0.0 0.0 0.00 0.00 0.00 75 1012.1
20260906080100 55 311 0.0 0.0 0.00 0.00 0.00 75 1012.0
20260906074549 55 247 0.0 0.0 0.00 0.00 0.00 74 1011.9
20260906073049 56 247 0.0 0.0 0.00 0.00 0.00 73 1012.0
20260906071547 56 247 0.0 0.0 0.00 0.00 0.00 72 1012.0
20260906070043 57 247 0.0 0.0 0.00 0.00 0.00 71 1012.0
20260906064544 57 247 0.0 0.0 0.00 0.00 0.00 70 1011.9
20260906063042 58 285 0.0 0.0 0.00 0.00 0.00 70 1012.0
20260906061542 58 286 0.0 0.0 0.00 0.00 0.00 69 1012.0
20260906060041 59 285 0.0 0.0 0.00 0.00 0.00 69 1011.9
20260906054555 59 285 0.0 0.0 0.00 0.00 0.00 68 1012.0
20260906053040 60 286 0.0 0.0 0.00 0.00 0.00 67 1012.2
20260906051601 61 285 0.0 0.0 0.00 0.00 0.00 66 1012.2
20260906050044 62 268 0.0 0.0 0.00 0.00 0.00 65 1012.1
20260906044548 62 268 0.0 0.0 0.00 0.00 0.00 64 1012.0
20260906043040 63 268 0.0 0.0 0.00 0.00 0.00 63 1011.9
20260906041538 64 268 0.0 0.0 0.00 0.00 0.00 62 1011.8
20260906040110 65 355 0.0 0.0 0.00 0.00 0.00 62 1011.5
20260906034537 66 355 0.0 0.0 0.00 0.00 0.00 59 1011.2
20260906033051 67 304 0.0 0.0 0.00 0.00 0.00 58 1011.1
20260906031536 68 209 0.0 0.0 0.00 0.00 0.00 58 1010.7
20260906030035 68 275 0.0 0.0 0.00 0.00 0.00 57 1010.4
20260906024534 69 213 0.0 0.0 0.00 0.00 0.00 57 1010.5
20260906023034 70 291 0.0 0.0 0.00 0.00 0.00 55 1010.5
20260906021534 71 205 0.0 0.0 0.00 0.00 0.00 53 1010.5
20260906020035 72 265 0.0 3.0 0.00 0.00 0.00 52 1010.3
20260906014533 73 223 0.0 2.0 0.00 0.00 0.00 49 1010.4
20260906013034 75 207 0.0 1.0 0.00 0.00 0.00 47 1010.4
20260906011532 75 225 0.0 2.0 0.00 0.00 0.00 45 1010.4
20260906010031 76 248 0.0 5.0 0.00 0.00 0.00 44 1010.5
20260906004530 77 226 0.0 1.0 0.00 0.00 0.00 45 1010.5
20260906003030 77 238 0.0 4.0 0.00 0.00 0.00 47 1010.4
20260906001532 77 228 0.0 6.0 0.00 0.00 0.00 47 1010.5
20260906000029 77 205 0.0 4.0 0.00 0.00 0.00 47 1010.4
20260905234528 78 244 1.0 8.0 0.00 0.00 0.00 46 1010.4
20260905233027 78 292 0.0 4.0 0.00 0.00 0.00 46 1010.4
20260905231526 79 207 2.0 6.0 0.00 0.00 0.00 44 1010.5
20260905230025 79 198 1.0 8.0 0.00 0.00 0.00 44 1010.6
20260905224555 79 232 0.0 7.0 0.00 0.00 0.00 44 1010.8
20260905223022 80 208 1.0 6.0 0.00 0.00 0.00 43 1010.9
20260905221520 80 215 0.0 7.0 0.00 0.00 0.00 44 1010.9
20260905220020 80 191 0.0 6.0 0.00 0.00 0.00 44 1011.0
20260905214519 80 273 2.0 6.0 0.00 0.00 0.00 43 1011.1
20260905213017 80 232 0.0 7.0 0.00 0.00 0.00 43 1011.3
20260905211536 81 224 1.0 7.0 0.00 0.00 0.00 42 1011.2
20260905210023 81 211 2.0 8.0 0.00 0.00 0.00 43 1011.4
20260905204516 81 193 1.0 7.0 0.00 0.00 0.00 44 1011.4
20260905203014 81 229 2.0 7.0 0.00 0.00 0.00 43 1011.5
20260905201513 81 244 3.0 9.0 0.00 0.00 0.00 45 1011.4
20260905200022 81 250 0.0 6.0 0.00 0.00 0.00 46 1011.6
20260905194511 80 84 1.0 8.0 0.00 0.00 0.00 46 1011.7
20260905193010 81 244 2.0 10.0 0.00 0.00 0.00 46 1011.8
20260905191506 80 183 1.0 7.0 0.00 0.00 0.00 45 1011.8
20260905190003 80 325 1.0 7.0 0.00 0.00 0.00 45 1011.9
20260905184604 80 204 0.0 5.0 0.00 0.00 0.00 45 1011.9
20260905183056 79 135 0.0 1.0 0.00 0.00 0.00 43 1012.0
20260905181552 78 84 0.0 2.0 0.00 0.00 0.00 43 1012.1
20260905180058 77 222 0.0 3.0 0.00 0.00 0.00 42 1012.1
20260905174542 75 125 0.0 3.0 0.00 0.00 0.00 44 1012.2
20260905173100 73 355 0.0 4.0 0.00 0.00 0.00 46 1012.3
20260905171535 71 114 0.0 0.0 0.00 0.00 0.00 49 1012.3
20260905170030 70 65 0.0 3.0 0.00 0.00 0.00 50 1012.2
20260905164530 69 180 0.0 3.0 0.00 0.00 0.00 52 1012.3